"Sample Date","Sample Time","Sample Value","Units","Flow Rate","Laser Status","Micron Size 0","Counts/Channel 0","Micron Size 1","Counts/Channel 1","Micron Size 2","Counts/Channel 2","Micron Size 3","Counts/Channel 3","Micron Size 4","Counts/Channel 4","Micron Size 5","Counts/Channel 5","Micron Size 6","Counts/Channel 6","Micron Size 7","Counts/Channel 7","Micron Size 8","Counts/Channel 8","Micron Size 9","Counts/Channel 9","Micron Size 10","Counts/Channel 10","Micron Size 11","Counts/Channel 11","Micron Size 12","Counts/Channel 12","Micron Size 13","Counts/Channel 13","Micron Size 14","Counts/Channel 14","Micron Size 15","Counts/Channel 15","Micron Size 16","Counts/Channel 16","Micron Size 17","Counts/Channel 17","Micron Size 18","Counts/Channel 18","Micron Size 19","Counts/Channel 19","Micron Size 20","Counts/Channel 20","Micron Size 21","Counts/Channel 21","Micron Size 22","Counts/Channel 22","Micron Size 23","Counts/Channel 23","Micron Size 24","Counts/Channel 24","Micron Size 25","Counts/Channel 25","Micron Size 26","Counts/Channel 26","Micron Size 27","Counts/Channel 27","Micron Size 28","Counts/Channel 28","Micron Size 29","Counts/Channel 29","Micron Size 30","Counts/Channel 30","Micron Size 31","Counts/Channel 31"
"03/03/08","18:00:04",57936.000,"cc",28345.561,1,0.100,52498.000,0.200,3682.000,0.300,666.000,0.500,761.000,1.000,329.000,5.000,0
"03/03/08","18:00:10",57759.000,"cc",28332.738,1,0.100,52236.000,0.200,3712.000,0.300,669.000,0.500,785.000,1.000,357.000,5.000,0
"03/03/08","18:00:16",55735.000,"cc",28297.871,1,0.100,50573.000,0.200,3450.000,0.300,685.000,0.500,705.000,1.000,322.000,5.000,0
"03/03/08","18:00:22",55643.000,"cc",28290.887,1,0.100,50407.000,0.200,3430.000,0.300,743.000,0.500,736.000,1.000,327.000,5.000,0
"03/03/08","18:00:28",55562.000,"cc",28325.766,1,0.100,50525.000,0.200,3314.000,0.300,670.000,0.500,735.000,1.000,318.000,5.000,0
"03/03/08","18:00:34",56986.000,"cc",28296.098,1,0.100,51726.000,0.200,3534.000,0.300,660.000,0.500,740.000,1.000,326.000,5.000,0
"03/03/08","18:00:40",56699.000,"cc",28316.719,1,0.100,51418.000,0.200,3517.000,0.300,684.000,0.500,749.000,1.000,331.000,5.000,0
"03/03/08","18:00:46",56398.000,"cc",28373.207,1,0.100,51280.000,0.200,3436.000,0.300,650.000,0.500,732.000,1.000,300.000,5.000,0
"03/03/08","18:00:52",58223.000,"cc",28314.217,1,0.100,52868.000,0.200,3706.000,0.300,663.000,0.500,668.000,1.000,318.000,5.000,0
"03/03/08","18:00:58",60503.000,"cc",28243.797,1,0.100,54804.000,0.200,4046.000,0.300,651.000,0.500,655.000,1.000,347.000,5.000,0
"03/03/08","18:01:04",60572.000,"cc",28341.309,1,0.100,54804.000,0.200,4027.000,0.300,680.000,0.500,722.000,1.000,339.000,5.000,0
"03/03/08","18:01:10",63229.000,"cc",28298.844,1,0.100,57255.000,0.200,4238.000,0.300,696.000,0.500,713.000,1.000,327.000,5.000,0
"03/03/08","18:01:16",64993.000,"cc",28330.961,1,0.100,58610.000,0.200,4607.000,0.300,729.000,0.500,744.000,1.000,302.000,5.000,1.000
"03/03/08","18:01:22",66801.000,"cc",28264.428,1,0.100,60255.000,0.200,4760.000,0.300,758.000,0.500,704.000,1.000,324.000,5.000,0
"03/03/08","18:01:28",66636.000,"cc",28340.307,1,0.100,60058.000,0.200,4782.000,0.300,720.000,0.500,741.000,1.000,335.000,5.000,0
"03/03/08","18:01:34",73987.000,"cc",28347.721,1,0.100,66442.000,0.200,5717.000,0.300,768.000,0.500,726.000,1.000,334.000,5.000,0
"03/03/08","18:01:40",71400.000,"cc",28297.051,1,0.100,64123.000,0.200,5403.000,0.300,814.000,0.500,737.000,1.000,323.000,5.000,0
"03/03/08","18:01:46",71387.000,"cc",28347.734,1,0.100,64321.000,0.200,5239.000,0.300,764.000,0.500,722.000,1.000,341.000,5.000,0
"03/03/08","18:01:52",70507.000,"cc",28315.453,1,0.100,63471.000,0.200,5291.000,0.300,736.000,0.500,685.000,1.000,324.000,5.000,0
"03/03/08","18:01:58",69126.000,"cc",28249.051,1,0.100,62393.000,0.200,4933.000,0.300,734.000,0.500,706.000,1.000,360.000,5.000,0
"03/03/08","18:02:04",66607.000,"cc",28295.473,1,0.100,60089.000,0.200,4793.000,0.300,664.000,0.500,739.000,1.000,322.000,5.000,0
"03/03/08","18:02:10",66427.000,"cc",28376.512,1,0.100,59909.000,0.200,4668.000,0.300,745.000,0.500,722.000,1.000,383.000,5.000,0
"03/03/08","18:02:16",64296.000,"cc",28335.186,1,0.100,57993.000,0.200,4465.000,0.300,731.000,0.500,780.000,1.000,327.000,5.000,0
"03/03/08","18:02:22",62519.000,"cc",28339.832,1,0.100,56497.000,0.200,4215.000,0.300,717.000,0.500,768.000,1.000,322.000,5.000,0
"03/03/08","18:02:28",63230.000,"cc",28294.326,1,0.100,57121.000,0.200,4319.000,0.300,732.000,0.500,716.000,1.000,341.000,5.000,1.000
"03/03/08","18:02:34",64404.000,"cc",28261.856,1,0.100,58157.000,0.200,4473.000,0.300,720.000,0.500,723.000,1.000,331.000,5.000,0
"03/03/08","18:02:40",63893.000,"cc",28332.393,1,0.100,57640.000,0.200,4468.000,0.300,703.000,0.500,743.000,1.000,339.000,5.000,0
"03/03/08","18:02:46",67283.000,"cc",28262.350,1,0.100,60688.000,0.200,4804.000,0.300,769.000,0.500,689.000,1.000,333.000,5.000,0
"03/03/08","18:02:52",67948.000,"cc",28339.607,1,0.100,61250.000,0.200,4882.000,0.300,733.000,0.500,766.000,1.000,317.000,5.000,0
"03/03/08","18:02:58",65215.000,"cc",28401.234,1,0.100,58968.000,0.200,4504.000,0.300,726.000,0.500,690.000,1.000,327.000,5.000,0
"03/03/08","18:03:04",71198.000,"cc",28263.613,1,0.100,64023.000,0.200,5393.000,0.300,738.000,0.500,727.000,1.000,316.000,5.000,1.000
"03/03/08","18:03:10",69700.000,"cc",28322.762,1,0.100,62754.000,0.200,5096.000,0.300,760.000,0.500,734.000,1.000,356.000,5.000,0
"03/03/08","18:03:16",66160.000,"cc",28349.404,1,0.100,59750.000,0.200,4681.000,0.300,703.000,0.500,688.000,1.000,338.000,5.000,0
"03/03/08","18:03:22",65595.000,"cc",28327.428,1,0.100,59182.000,0.200,4636.000,0.300,726.000,0.500,751.000,1.000,300.000,5.000,0
"03/03/08","18:03:28",62775.000,"cc",28336.518,1,0.100,56754.000,0.200,4242.000,0.300,701.000,0.500,766.000,1.000,312.000,5.000,0
"03/03/08","18:03:34",62943.000,"cc",28286.463,1,0.100,56923.000,0.200,4354.000,0.300,672.000,0.500,684.000,1.000,309.000,5.000,1.000
"03/03/08","18:03:40",63126.000,"cc",28229.076,1,0.100,57061.000,0.200,4315.000,0.300,674.000,0.500,742.000,1.000,334.000,5.000,0
"03/03/08","18:03:46",63423.000,"cc",28343.984,1,0.100,57420.000,0.200,4271.000,0.300,720.000,0.500,701.000,1.000,311.000,5.000,0
"03/03/08","18:03:52",62277.000,"cc",28375.453,1,0.100,56247.000,0.200,4271.000,0.300,686.000,0.500,720.000,1.000,353.000,5.000,0
"03/03/08","18:03:58",62748.000,"cc",28295.799,1,0.100,56566.000,0.200,4325.000,0.300,741.000,0.500,799.000,1.000,317.000,5.000,0
"03/03/08","18:04:04",60806.000,"cc",28336.813,1,0.100,54787.000,0.200,4014.000,0.300,859.000,0.500,785.000,1.000,361.000,5.000,0
"03/03/08","18:04:10",59746.000,"cc",28281.148,1,0.100,53940.000,0.200,3967.000,0.300,729.000,0.500,778.000,1.000,332.000,5.000,0
"03/03/08","18:04:16",61047.000,"cc",28349.486,1,0.100,55064.000,0.200,4093.000,0.300,729.000,0.500,798.000,1.000,363.000,5.000,0
"03/03/08","18:04:22",59908.000,"cc",28350.973,1,0.100,53941.000,0.200,3998.000,0.300,793.000,0.500,820.000,1.000,356.000,5.000,0
"03/03/08","18:04:28",58188.000,"cc",28278.809,1,0.100,52601.000,0.200,3709.000,0.300,777.000,0.500,734.000,1.000,367.000,5.000,0
"03/03/08","18:04:34",57791.000,"cc",28354.438,1,0.100,52243.000,0.200,3651.000,0.300,737.000,0.500,790.000,1.000,370.000,5.000,0
"03/03/08","18:04:40",56688.000,"cc",28313.549,1,0.100,51259.000,0.200,3520.000,0.300,770.000,0.500,777.000,1.000,362.000,5.000,0
"03/03/08","18:04:46",57219.000,"cc",28286.951,1,0.100,51723.000,0.200,3579.000,0.300,755.000,0.500,782.000,1.000,380.000,5.000,0
"03/03/08","18:04:52",56994.000,"cc",28334.410,1,0.100,51605.000,0.200,3591.000,0.300,744.000,0.500,723.000,1.000,331.000,5.000,0
"03/03/08","18:04:58",57728.000,"cc",28309.219,1,0.100,52324.000,0.200,3656.000,0.300,679.000,0.500,752.000,1.000,317.000,5.000,0
"03/03/08","18:05:04",57449.000,"cc",28314.164,1,0.100,52084.000,0.200,3576.000,0.300,659.000,0.500,766.000,1.000,364.000,5.000,0
"03/03/08","18:05:10",56845.000,"cc",28297.867,1,0.100,51499.000,0.200,3580.000,0.300,686.000,0.500,761.000,1.000,319.000,5.000,0
"03/03/08","18:05:16",56589.000,"cc",28286.697,1,0.100,51317.000,0.200,3433.000,0.300,725.000,0.500,744.000,1.000,370.000,5.000,0
"03/03/08","18:05:22",57779.000,"cc",28284.160,1,0.100,52250.000,0.200,3635.000,0.300,783.000,0.500,740.000,1.000,371.000,5.000,0
"03/03/08","18:05:28",58029.000,"cc",28394.906,1,0.100,52478.000,0.200,3709.000,0.300,686.000,0.500,819.000,1.000,337.000,5.000,0
"03/03/08","18:05:34",57519.000,"cc",28341.414,1,0.100,52148.000,0.200,3620.000,0.300,682.000,0.500,758.000,1.000,311.000,5.000,0
"03/03/08","18:05:40",61141.000,"cc",28386.586,1,0.100,55161.000,0.200,4097.000,0.300,730.000,0.500,806.000,1.000,347.000,5.000,0
"03/03/08","18:05:46",62554.000,"cc",28245.611,1,0.100,56739.000,0.200,4108.000,0.300,690.000,0.500,703.000,1.000,314.000,5.000,0
"03/03/08","18:05:52",63403.000,"cc",28275.893,1,0.100,57304.000,0.200,4316.000,0.300,762.000,0.500,727.000,1.000,294.000,5.000,0
"03/03/08","18:05:58",63427.000,"cc",28366.104,1,0.100,57247.000,0.200,4382.000,0.300,747.000,0.500,701.000,1.000,350.000,5.000,0
"03/03/08","18:06:04",65657.000,"cc",28225.279,1,0.100,59148.000,0.200,4666.000,0.300,782.000,0.500,744.000,1.000,317.000,5.000,0
"03/03/08","18:06:10",61843.000,"cc",28263.756,1,0.100,55954.000,0.200,4078.000,0.300,754.000,0.500,740.000,1.000,317.000,5.000,0
"03/03/08","18:06:16",62518.000,"cc",28358.988,1,0.100,56475.000,0.200,4289.000,0.300,726.000,0.500,703.000,1.000,325.000,5.000,0
"03/03/08","18:06:22",61331.000,"cc",28356.133,1,0.100,55406.000,0.200,4220.000,0.300,627.000,0.500,790.000,1.000,288.000,5.000,0
"03/03/08","18:06:28",61553.000,"cc",28320.406,1,0.100,55642.000,0.200,4106.000,0.300,719.000,0.500,751.000,1.000,335.000,5.000,0
"03/03/08","18:06:34",63195.000,"cc",28278.857,1,0.100,57201.000,0.200,4321.000,0.300,664.000,0.500,700.000,1.000,309.000,5.000,0
"03/03/08","18:06:40",65749.000,"cc",28345.721,1,0.100,59319.000,0.200,4618.000,0.300,734.000,0.500,768.000,1.000,310.000,5.000,0
"03/03/08","18:06:46",63907.000,"cc",28345.074,1,0.100,57651.000,0.200,4473.000,0.300,743.000,0.500,699.000,1.000,341.000,5.000,0
"03/03/08","18:06:52",60783.000,"cc",28340.047,1,0.100,55008.000,0.200,4002.000,0.300,675.000,0.500,742.000,1.000,356.000,5.000,0
"03/03/08","18:06:58",60506.000,"cc",28253.734,1,0.100,54764.000,0.200,3988.000,0.300,731.000,0.500,701.000,1.000,322.000,5.000,0
"03/03/08","18:07:04",60552.000,"cc",28325.639,1,0.100,54813.000,0.200,3967.000,0.300,711.000,0.500,714.000,1.000,347.000,5.000,0
"03/03/08","18:07:10",61132.000,"cc",28330.770,1,0.100,55181.000,0.200,4160.000,0.300,717.000,0.500,734.000,1.000,340.000,5.000,0
"03/03/08","18:07:16",61658.000,"cc",28359.920,1,0.100,55718.000,0.200,4167.000,0.300,727.000,0.500,714.000,1.000,332.000,5.000,0
"03/03/08","18:07:22",62062.000,"cc",28286.434,1,0.100,56111.000,0.200,4109.000,0.300,737.000,0.500,761.000,1.000,344.000,5.000,0
"03/03/08","18:07:28",61938.000,"cc",28297.910,1,0.100,55984.000,0.200,4135.000,0.300,719.000,0.500,756.000,1.000,344.000,5.000,0
"03/03/08","18:07:34",63679.000,"cc",28257.957,1,0.100,57536.000,0.200,4261.000,0.300,743.000,0.500,757.000,1.000,382.000,5.000,0
"03/03/08","18:07:40",63219.000,"cc",28320.740,1,0.100,57174.000,0.200,4309.000,0.300,714.000,0.500,700.000,1.000,322.000,5.000,0
"03/03/08","18:07:46",63328.000,"cc",28313.988,1,0.100,57274.000,0.200,4240.000,0.300,715.000,0.500,779.000,1.000,320.000,5.000,0
"03/03/08","18:07:52",63449.000,"cc",28337.369,1,0.100,57340.000,0.200,4320.000,0.300,746.000,0.500,706.000,1.000,337.000,5.000,0
"03/03/08","18:07:58",64949.000,"cc",28303.486,1,0.100,58730.000,0.200,4425.000,0.300,723.000,0.500,743.000,1.000,328.000,5.000,0
"03/03/08","18:08:04",65667.000,"cc",28313.389,1,0.100,59254.000,0.200,4636.000,0.300,756.000,0.500,720.000,1.000,301.000,5.000,0
"03/03/08","18:08:10",71942.000,"cc",28299.088,1,0.100,64696.000,0.200,5389.000,0.300,749.000,0.500,764.000,1.000,344.000,5.000,0
"03/03/08","18:08:16",73728.000,"cc",28368.260,1,0.100,66332.000,0.200,5556.000,0.300,758.000,0.500,733.000,1.000,349.000,5.000,0
"03/03/08","18:08:22",76261.000,"cc",28342.723,1,0.100,68499.000,0.200,5956.000,0.300,750.000,0.500,729.000,1.000,327.000,5.000,0
"03/03/08","18:08:28",78094.000,"cc",28288.949,1,0.100,69993.000,0.200,6190.000,0.300,796.000,0.500,779.000,1.000,336.000,5.000,0
"03/03/08","18:08:34",84342.000,"cc",28320.416,1,0.100,75524.000,0.200,6999.000,0.300,793.000,0.500,686.000,1.000,340.000,5.000,0
"03/03/08","18:08:40",89423.000,"cc",28327.465,1,0.100,79723.000,0.200,7781.000,0.300,833.000,0.500,732.000,1.000,354.000,5.000,0
"03/03/08","18:08:46",91457.000,"cc",28382.305,1,0.100,81498.000,0.200,8012.000,0.300,878.000,0.500,718.000,1.000,351.000,5.000,0
"03/03/08","18:08:52",99617.000,"cc",28270.291,1,0.100,88647.000,0.200,8984.000,0.300,920.000,0.500,740.000,1.000,326.000,5.000,0
"03/03/08","18:08:58",100397.000,"cc",28325.223,1,0.100,89268.000,0.200,9119.000,0.300,965.000,0.500,709.000,1.000,336.000,5.000,0
"03/03/08","18:09:04",95790.000,"cc",28274.736,1,0.100,85444.000,0.200,8327.000,0.300,932.000,0.500,743.000,1.000,344.000,5.000,0
"03/03/08","18:09:10",90800.000,"cc",28296.063,1,0.100,81061.000,0.200,7856.000,0.300,858.000,0.500,720.000,1.000,302.000,5.000,3.000
"03/03/08","18:09:16",90073.000,"cc",28304.195,1,0.100,80307.000,0.200,7702.000,0.300,913.000,0.500,789.000,1.000,362.000,5.000,0
"03/03/08","18:09:22",92292.000,"cc",28354.520,1,0.100,82074.000,0.200,8289.000,0.300,888.000,0.500,706.000,1.000,335.000,5.000,0
"03/03/08","18:09:28",93672.000,"cc",28317.740,1,0.100,83488.000,0.200,8191.000,0.300,908.000,0.500,738.000,1.000,347.000,5.000,0
"03/03/08","18:09:34",94964.000,"cc",28293.289,1,0.100,84782.000,0.200,8226.000,0.300,922.000,0.500,703.000,1.000,331.000,5.000,0
"03/03/08","18:09:40",89561.000,"cc",28282.578,1,0.100,80053.000,0.200,7543.000,0.300,906.000,0.500,701.000,1.000,358.000,5.000,0
"03/03/08","18:09:46",82482.000,"cc",28358.221,1,0.100,73807.000,0.200,6796.000,0.300,781.000,0.500,725.000,1.000,373.000,5.000,0
"03/03/08","18:09:52",82253.000,"cc",28300.508,1,0.100,73491.000,0.200,6901.000,0.300,835.000,0.500,717.000,1.000,308.000,5.000,1.000
"03/03/08","18:09:58",84079.000,"cc",28299.525,1,0.100,75309.000,0.200,6875.000,0.300,845.000,0.500,725.000,1.000,325.000,5.000,0
"03/03/08","18:10:04",82593.000,"cc",28333.565,1,0.100,73834.000,0.200,6769.000,0.300,883.000,0.500,769.000,1.000,338.000,5.000,0
"03/03/08","18:10:10",83647.000,"cc",28321.404,1,0.100,74836.000,0.200,6924.000,0.300,832.000,0.500,719.000,1.000,336.000,5.000,0
"03/03/08","18:10:16",87093.000,"cc",28362.369,1,0.100,77763.000,0.200,7489.000,0.300,818.000,0.500,687.000,1.000,336.000,5.000,0
"03/03/08","18:10:22",86885.000,"cc",28323.854,1,0.100,77668.000,0.200,7290.000,0.300,855.000,0.500,750.000,1.000,322.000,5.000,0
"03/03/08","18:10:28",88645.000,"cc",28336.361,1,0.100,79207.000,0.200,7621.000,0.300,828.000,0.500,697.000,1.000,292.000,5.000,0
"03/03/08","18:10:34",87951.000,"cc",28338.766,1,0.100,78468.000,0.200,7561.000,0.300,825.000,0.500,742.000,1.000,355.000,5.000,0
"03/03/08","18:10:40",88108.000,"cc",28286.859,1,0.100,78468.000,0.200,7704.000,0.300,896.000,0.500,686.000,1.000,354.000,5.000,0
"03/03/08","18:10:46",90199.000,"cc",28301.275,1,0.100,80220.000,0.200,7988.000,0.300,925.000,0.500,727.000,1.000,339.000,5.000,0
"03/03/08","18:10:52",95039.000,"cc",28357.705,1,0.100,84579.000,0.200,8454.000,0.300,947.000,0.500,721.000,1.000,338.000,5.000,0
"03/03/08","18:10:58",92583.000,"cc",28313.338,1,0.100,82510.000,0.200,8125.000,0.300,890.000,0.500,732.000,1.000,326.000,5.000,0
"03/03/08","18:11:04",90988.000,"cc",28291.137,1,0.100,81179.000,0.200,7780.000,0.300,902.000,0.500,771.000,1.000,356.000,5.000,0
"03/03/08","18:11:10",89430.000,"cc",28292.059,1,0.100,79765.000,0.200,7723.000,0.300,889.000,0.500,736.000,1.000,317.000,5.000,0
"03/03/08","18:11:16",89535.000,"cc",28323.979,1,0.100,79973.000,0.200,7635.000,0.300,835.000,0.500,733.000,1.000,359.000,5.000,0
"03/03/08","18:11:22",92894.000,"cc",28306.303,1,0.100,82911.000,0.200,8087.000,0.300,860.000,0.500,721.000,1.000,315.000,5.000,0
"03/03/08","18:11:28",90868.000,"cc",28263.914,1,0.100,80965.000,0.200,7948.000,0.300,888.000,0.500,728.000,1.000,339.000,5.000,0
"03/03/08","18:11:34",91139.000,"cc",28286.973,1,0.100,81372.000,0.200,7913.000,0.300,873.000,0.500,664.000,1.000,317.000,5.000,0
"03/03/08","18:11:40",88335.000,"cc",28377.172,1,0.100,78980.000,0.200,7389.000,0.300,930.000,0.500,694.000,1.000,342.000,5.000,0
"03/03/08","18:11:46",85538.000,"cc",28311.963,1,0.100,76423.000,0.200,7229.000,0.300,806.000,0.500,739.000,1.000,341.000,5.000,0
"03/03/08","18:11:52",84814.000,"cc",28291.500,1,0.100,75694.000,0.200,7233.000,0.300,843.000,0.500,710.000,1.000,334.000,5.000,0
"03/03/08","18:11:58",87190.000,"cc",28389.012,1,0.100,78083.000,0.200,7319.000,0.300,817.000,0.500,646.000,1.000,325.000,5.000,0
"03/03/08","18:12:04",86322.000,"cc",28340.453,1,0.100,77158.000,0.200,7345.000,0.300,807.000,0.500,677.000,1.000,334.000,5.000,1.000
"03/03/08","18:12:10",87032.000,"cc",28271.635,1,0.100,77688.000,0.200,7429.000,0.300,851.000,0.500,728.000,1.000,336.000,5.000,0
"03/03/08","18:12:16",86192.000,"cc",28356.268,1,0.100,77004.000,0.200,7334.000,0.300,812.000,0.500,705.000,1.000,337.000,5.000,0
"03/03/08","18:12:22",83855.000,"cc",28263.096,1,0.100,74926.000,0.200,7065.000,0.300,853.000,0.500,727.000,1.000,284.000,5.000,0
"03/03/08","18:12:28",84135.000,"cc",28252.643,1,0.100,75189.000,0.200,7006.000,0.300,865.000,0.500,740.000,1.000,335.000,5.000,0
"03/03/08","18:12:34",86130.000,"cc",28338.838,1,0.100,76805.000,0.200,7297.000,0.300,886.000,0.500,775.000,1.000,367.000,5.000,0
"03/03/08","18:12:40",86237.000,"cc",28334.676,1,0.100,76944.000,0.200,7335.000,0.300,850.000,0.500,743.000,1.000,365.000,5.000,0
"03/03/08","18:12:46",85166.000,"cc",28333.008,1,0.100,75906.000,0.200,7332.000,0.300,854.000,0.500,748.000,1.000,326.000,5.000,0
"03/03/08","18:12:52",85995.000,"cc",28331.494,1,0.100,76907.000,0.200,7178.000,0.300,858.000,0.500,708.000,1.000,344.000,5.000,0
"03/03/08","18:12:58",84746.000,"cc",28256.102,1,0.100,75589.000,0.200,7108.000,0.300,921.000,0.500,759.000,1.000,369.000,5.000,0
"03/03/08","18:13:04",87210.000,"cc",28317.986,1,0.100,77760.000,0.200,7583.000,0.300,832.000,0.500,714.000,1.000,321.000,5.000,0
"03/03/08","18:13:10",88650.000,"cc",28349.682,1,0.100,79152.000,0.200,7597.000,0.300,862.000,0.500,705.000,1.000,334.000,5.000,0
"03/03/08","18:13:16",89354.000,"cc",28333.953,1,0.100,79559.000,0.200,7884.000,0.300,854.000,0.500,735.000,1.000,322.000,5.000,0
"03/03/08","18:13:22",90344.000,"cc",28234.891,1,0.100,80231.000,0.200,8100.000,0.300,905.000,0.500,759.000,1.000,349.000,5.000,0
"03/03/08","18:13:28",92468.000,"cc",28302.363,1,0.100,82213.000,0.200,8259.000,0.300,917.000,0.500,721.000,1.000,358.000,5.000,0
"03/03/08","18:13:34",93603.000,"cc",28347.445,1,0.100,83294.000,0.200,8285.000,0.300,923.000,0.500,760.000,1.000,341.000,5.000,0
"03/03/08","18:13:40",94889.000,"cc",28349.481,1,0.100,84474.000,0.200,8490.000,0.300,850.000,0.500,741.000,1.000,334.000,5.000,0
"03/03/08","18:13:46",94894.000,"cc",28326.600,1,0.100,84234.000,0.200,8653.000,0.300,936.000,0.500,762.000,1.000,309.000,5.000,0
"03/03/08","18:13:52",94690.000,"cc",28325.545,1,0.100,84160.000,0.200,8564.000,0.300,901.000,0.500,737.000,1.000,328.000,5.000,0
"03/03/08","18:13:58",96658.000,"cc",28339.385,1,0.100,85868.000,0.200,8801.000,0.300,958.000,0.500,716.000,1.000,315.000,5.000,0
"03/03/08","18:14:04",95985.000,"cc",28271.391,1,0.100,85212.000,0.200,8746.000,0.300,953.000,0.500,752.000,1.000,322.000,5.000,0
"03/03/08","18:14:10",93698.000,"cc",28327.773,1,0.100,83318.000,0.200,8378.000,0.300,955.000,0.500,734.000,1.000,313.000,5.000,0
"03/03/08","18:14:16",97311.000,"cc",28304.848,1,0.100,86606.000,0.200,8669.000,0.300,998.000,0.500,729.000,1.000,309.000,5.000,0
"03/03/08","18:14:22",95865.000,"cc",28313.404,1,0.100,85145.000,0.200,8699.000,0.300,924.000,0.500,747.000,1.000,350.000,5.000,0
"03/03/08","18:14:28",93237.000,"cc",28316.490,1,0.100,82922.000,0.200,8338.000,0.300,904.000,0.500,718.000,1.000,354.000,5.000,1.000
"03/03/08","18:14:34",92634.000,"cc",28364.502,1,0.100,82417.000,0.200,8366.000,0.300,835.000,0.500,715.000,1.000,300.000,5.000,1.000
"03/03/08","18:14:40",88100.000,"cc",28317.262,1,0.100,78412.000,0.200,7771.000,0.300,841.000,0.500,733.000,1.000,343.000,5.000,0
"03/03/08","18:14:46",88763.000,"cc",28261.785,1,0.100,79077.000,0.200,7663.000,0.300,910.000,0.500,770.000,1.000,343.000,5.000,0
"03/03/08","18:14:52",91609.000,"cc",28277.293,1,0.100,81558.000,0.200,8119.000,0.300,869.000,0.500,704.000,1.000,359.000,5.000,0
"03/03/08","18:14:58",89661.000,"cc",28357.156,1,0.100,79835.000,0.200,7873.000,0.300,909.000,0.500,714.000,1.000,330.000,5.000,0
"03/03/08","18:15:04",89341.000,"cc",28367.012,1,0.100,79624.000,0.200,7719.000,0.300,862.000,0.500,814.000,1.000,322.000,5.000,0
"03/03/08","18:15:10",92332.000,"cc",28329.996,1,0.100,82095.000,0.200,8232.000,0.300,897.000,0.500,761.000,1.000,347.000,5.000,0
"03/03/08","18:15:16",91528.000,"cc",28311.729,1,0.100,81559.000,0.200,8038.000,0.300,885.000,0.500,709.000,1.000,337.000,5.000,0
"03/03/08","18:15:22",94217.000,"cc",28344.109,1,0.100,83920.000,0.200,8374.000,0.300,892.000,0.500,714.000,1.000,317.000,5.000,0
"03/03/08","18:15:28",94137.000,"cc",28275.787,1,0.100,83889.000,0.200,8288.000,0.300,968.000,0.500,695.000,1.000,297.000,5.000,0
"03/03/08","18:15:34",96579.000,"cc",28268.543,1,0.100,85835.000,0.200,8752.000,0.300,951.000,0.500,718.000,1.000,323.000,5.000,0
"03/03/08","18:15:40",94682.000,"cc",28270.719,1,0.100,84230.000,0.200,8510.000,0.300,868.000,0.500,726.000,1.000,348.000,5.000,0
"03/03/08","18:15:46",93033.000,"cc",28359.410,1,0.100,82537.000,0.200,8510.000,0.300,919.000,0.500,744.000,1.000,323.000,5.000,0
"03/03/08","18:15:52",92977.000,"cc",28391.227,1,0.100,82562.000,0.200,8431.000,0.300,945.000,0.500,716.000,1.000,322.000,5.000,1.000
"03/03/08","18:15:58",86462.000,"cc",28314.305,1,0.100,77027.000,0.200,7579.000,0.300,841.000,0.500,707.000,1.000,308.000,5.000,0
"03/03/08","18:16:04",87278.000,"cc",28278.727,1,0.100,77767.000,0.200,7470.000,0.300,889.000,0.500,787.000,1.000,365.000,5.000,0
"03/03/08","18:16:10",88856.000,"cc",28329.766,1,0.100,79140.000,0.200,7778.000,0.300,924.000,0.500,704.000,1.000,310.000,5.000,0
"03/03/08","18:16:16",86912.000,"cc",28316.713,1,0.100,77566.000,0.200,7456.000,0.300,877.000,0.500,688.000,1.000,325.000,5.000,0
"03/03/08","18:16:22",92012.000,"cc",28272.703,1,0.100,81990.000,0.200,8110.000,0.300,921.000,0.500,675.000,1.000,316.000,5.000,0
"03/03/08","18:16:28",93112.000,"cc",28361.303,1,0.100,82928.000,0.200,8223.000,0.300,908.000,0.500,726.000,1.000,327.000,5.000,0
"03/03/08","18:16:34",95257.000,"cc",28317.201,1,0.100,84835.000,0.200,8466.000,0.300,873.000,0.500,756.000,1.000,327.000,5.000,0
"03/03/08","18:16:40",95938.000,"cc",28324.539,1,0.100,85241.000,0.200,8672.000,0.300,942.000,0.500,750.000,1.000,333.000,5.000,0
"03/03/08","18:16:46",94118.000,"cc",28355.545,1,0.100,83680.000,0.200,8454.000,0.300,925.000,0.500,723.000,1.000,336.000,5.000,0
"03/03/08","18:16:52",92966.000,"cc",28307.926,1,0.100,82575.000,0.200,8403.000,0.300,901.000,0.500,781.000,1.000,306.000,5.000,0
"03/03/08","18:16:58",93464.000,"cc",28329.613,1,0.100,83222.000,0.200,8223.000,0.300,933.000,0.500,751.000,1.000,335.000,5.000,0
"03/03/08","18:17:04",93297.000,"cc",28298.385,1,0.100,83270.000,0.200,8136.000,0.300,882.000,0.500,709.000,1.000,300.000,5.000,0
"03/03/08","18:17:10",94872.000,"cc",28311.904,1,0.100,84246.000,0.200,8648.000,0.300,930.000,0.500,712.000,1.000,336.000,5.000,0
"03/03/08","18:17:16",95775.000,"cc",28288.266,1,0.100,85218.000,0.200,8587.000,0.300,939.000,0.500,722.000,1.000,309.000,5.000,0